Location: Samoth
(37.3328°N, 88.7876°W)
Time: 12:29:56
(UTC+00:00)

NOAA 12 - Pass Details

Date: 29 October 2020
Orbit: 795 x 815 km, 98.5° (Epoch: 04 December)

Event Time Altitude Azimuth Distance (km) Brightness Sun altitude
Rises 23:21:37 0° 163° (SSE) 3,305 7.3 -5.0°
Reaches altitude 10° 23:23:56 10° 162° (SSE) 2,381 6.5 -5.5°
Maximum altitude 23:29:12 81° 75° (ENE) 824 4.1 -6.5°
Drops below altitude 10° 23:34:32 10° 349° (N) 2,407 6.6 -7.5°
Sets 23:36:53 0° 349° (NNW) 3,345 7.3 -8.0°
